Location: Davayat
(45.9471°N, 3.1105°E)
Time: 13:19:41
(UTC+00:00)

Daily predictions for brighter satellites

Satellite Brightness Start Highest point End
(mag) Time Altitude Azimuth Time Altitude Azimuth Time Altitude Azimuth
Cosmos 1464 Rocket 4.1 16:28:32 10° S 16:34:55 87° E 16:41:20 10° N
USA 229 DEB 3.9 16:28:22 10° NW 16:35:40 70° NE 16:43:27 10° SE
USA 229 3.9 16:28:28 10° NW 16:35:46 69° NE 16:43:32 10° SE
Cosmos 1937 Rocket 4.0 16:32:18 10° N 16:37:19 40° ENE 16:42:18 10° SE
Cosmos 1500 Rocket 3.7 16:35:59 10° N 16:40:23 56° ENE 16:44:42 10° SSE
Cosmos 1666 4.5 16:38:59 10° NE 16:40:25 12° ENE 16:41:50 10° E
Spot 1 4.4 16:35:53 10° NNE 16:40:37 74° ESE 16:45:34 10° S
Nadezhda 4 Rocket 4.0 16:35:54 10° N 16:42:16 79° E 16:48:36 10° SSE
SL-24 R/B - RUBIN 2 4.4 16:38:21 10° NNW 16:42:28 31° NE 16:46:21 10° ESE
ATLAS 2AS CENTAUR R/B 4.4 16:36:48 10° WNW 16:42:47 23° NNW 16:48:35 10° NNE
SeaSat 1 4.3 16:38:58 10° N 16:42:57 25° NW 16:46:54 10° W
Cosmos 2322 Rocket 4.0 16:41:52 10° NNE 16:43:27 11° NNE 16:45:01 10° NE
Cosmos 990 Rocket 3.9 16:39:08 10° NNW 16:44:22 80° ENE 16:49:31 10° SSE
FengYun 1-2 T 4.2 16:40:17 10° SSE 16:45:49 66° ENE 16:51:19 10° N
Cosmos 1697 Rocket 2.7 16:41:04 10° NNW 16:46:38 61° ENE 16:52:11 10° SE
NOAA 6 4.1 16:44:13 10° SSE 16:49:13 56° ENE 16:54:15 10° N
Sich 1 3.7 16:46:09 10° N 16:50:03 33° ENE 16:53:57 10° SE
Cosmos 1980 Rocket 2.7 16:45:35 10° NNW 16:50:50 37° NE 16:56:01 10° ESE
Cosmos 2221 3.1 16:46:59 10° SSW 16:51:12 61° W 16:55:28 10° N
Cosmos 1805 Rocket 3.8 16:47:56 10° N 16:52:06 44° ENE 16:56:14 10° SSE
Cosmos 2369 4.0 16:47:18 10° NNW 16:52:51 47° ENE 16:58:20 10° SE
USA 234 3.3 16:49:11 10° ESE 16:55:41 74° NNE 17:02:13 10° NW
Cosmos 1842 Rocket 4.1 16:51:38 10° SSW 16:56:04 64° W 17:00:32 10° N
CZ-4C R/B 3.3 16:50:21 10° NNW 16:56:58 43° NE 17:04:42 10° ESE
Cosmos 1092 Rocket 4.1 16:51:51 10° N 16:58:10 63° ENE 17:04:25 10° SSE
Cosmos 2084 3.8 16:54:31 10° NW 16:58:49 73° SW 17:03:17 10° SSE
NOSS 3-1 (A) 4.2 16:51:46 10° NW 16:59:18 86° SW 17:08:09 10° SSE
Cosmos 1812 4.0 16:57:12 10° SE 17:00:06 21° E 17:02:42 11° NE
USA 306 4.2 16:56:52 10° WNW 17:00:32 27° N 17:03:35 13° NE
SL-16 R/B 3.7 16:58:09 10° N 17:01:46 17° NE 17:04:15 13° ENE
ISS -3.3 16:58:57 10° WNW 17:02:15 46° NNE 17:04:59 14° E
Meteor 1-25 Rocket 4.1 16:58:16 10° N 17:03:51 77° ENE 17:09:27 10° SSE
NOSS 2-2 (D) 4.4 16:59:50 10° NNW 17:04:49 54° NE 17:11:43 10° SE
NOSS 2-2 (E) 4.4 16:59:58 10° NNW 17:05:10 65° NE 17:12:30 10° SE
SMAP 3.0 17:00:33 10° SSE 17:05:11 78° ENE 17:09:52 10° N
Cosmos 2082 Rocket 2.7 17:00:26 10° S 17:05:39 39° ESE 17:10:43 11° NE
Cosmos 1939 Rocket 2.9 17:02:19 10° SSE 17:06:26 87° ENE 17:10:32 10° NNW
CORIOLIS 4.1 17:02:47 10° SSE 17:08:09 74° ENE 17:13:35 10° N
Cosmos 858 Rocket 4.5 17:04:36 10° NNW 17:09:54 67° ENE 17:15:08 10° SSE
Cosmos 44 Rocket 4.4 17:07:48 10° NNW 17:11:51 24° NE 17:14:23 16° E
CZ-4B DEB 4.1 17:09:03 10° SSE 17:14:32 72° ENE 17:20:01 10° N
Cosmos 2278 4.1 17:11:28 10° NNW 17:16:53 42° NE 17:22:15 10° SE
Cosmos 1602 3.6 17:13:28 10° N 17:17:21 84° E 17:21:13 10° S
AQUARIUS 4.1 17:14:37 10° SSE 17:19:06 90° ESE 17:23:38 10° NNW
USA 307 4.2 17:15:43 10° WNW 17:19:25 27° N 17:21:38 18° NE
Cosmos 1627 Rocket 4.4 17:13:27 10° N 17:19:39 77° E 17:25:45 10° SSE
Cosmos 540 Rocket 3.4 17:15:31 10° SSW 17:20:36 78° ESE 17:25:45 10° NNE
ARGOS 3.5 17:19:46 10° SE 17:24:46 40° ENE 17:29:47 10° N
Cosmos 2279 Rocket 4.2 17:19:45 10° SSE 17:25:38 47° E 17:31:32 10° NNE
COSMOS 2406 3.2 17:20:32 10° SSW 17:26:17 90° ESE 17:32:04 10° NNE
COSMO-SKYMED 1 3.2 17:23:24 15° NE 17:26:30 35° E 17:30:29 10° SSE
Cosmos 1833 Rocket 2.9 17:22:01 10° SW 17:27:37 70° WNW 17:33:16 10° NNE
Cosmos 1782 2.7 17:25:03 10° S 17:29:02 78° E 17:33:02 10° NNE
Cosmos 1814 Rocket 4.3 17:25:15 10° S 17:30:12 44° ESE 17:33:44 18° NE
Meteor 2-21 4.4 17:24:31 10° N 17:30:39 82° E 17:36:42 10° S
ATLAS 5 CENTAUR R/B 3.0 17:24:37 10° NW 17:31:48 31° NNE 17:33:09 25° NE
Cosmos 921 Rocket 4.5 17:30:32 10° SE 17:32:43 19° ESE 17:32:43 19° ESE
Cosmos 1633 Rocket 3.3 17:31:05 10° N 17:35:18 45° ENE 17:39:30 10° SSE
Cosmos 1818 4.1 17:30:59 10° NNW 17:36:06 38° NE 17:38:50 23° E
YAOGAN 1 4.4 17:39:35 16° NNE 17:39:35 16° NNE 17:40:43 10° NNE
CZ-2D R/B 3.2 17:36:05 10° SSE 17:39:55 83° WSW 17:43:46 10° NNW
GEOS 3 Rocket 4.3 17:37:59 25° E 17:40:05 34° NE 17:44:43 10° NNW
USA 308 4.1 17:38:24 10° NW 17:42:06 28° N 17:43:13 24° NNE
Cosmos 1634 Rocket 4.1 17:36:13 10° S 17:42:33 86° W 17:48:55 10° N
SJ-11-01 4.4 17:38:04 10° SSE 17:42:40 53° ENE 17:47:18 10° N
COSMOS 2455 2.8 17:37:32 10° SSW 17:43:34 86° ESE 17:48:14 18° NNE
PAYLOAD B 4.3 17:38:45 10° SSE 17:44:21 84° WSW 17:50:00 10° NNW
CZ-2C R/B 2.6 17:40:52 10° NNE 17:46:00 58° E 17:51:05 10° S
Cosmos 1500 3.5 17:43:07 10° NNW 17:46:51 67° W 17:50:32 10° S
CZ-4B R/B 3.0 17:41:30 10° SSE 17:46:54 74° ENE 17:52:14 10° N
Cosmos 1151 Rocket 2.9 17:43:46 10° S 17:48:03 67° E 17:51:27 16° NNE
Cosmos 2026 Rocket 4.3 17:42:19 10° NNW 17:48:25 69° W 17:54:25 10° S
Lacrosse 5 rocket 2.0 17:46:47 10° NW 17:50:25 34° NNE 17:50:36 34° NE
Okean O Rocket 1.6 17:46:35 10° SSE 17:50:58 61° ENE 17:55:23 10° N
Cosmos 2208 Rocket 4.1 17:54:04 10° S 17:59:20 56° ESE 18:01:39 32° NE
CZ-4 R/B 4.3 17:56:11 10° SSE 18:00:18 72° ENE 18:04:26 10° N
Cosmos 1666 Rocket 3.6 17:56:41 10° N 18:01:10 81° W 18:05:33 10° S
Meteor 1-10 Rocket 4.4 17:56:50 10° SSE 18:02:22 48° E 18:04:53 29° NE
H-2A R/B 2.5 17:57:58 10° S 18:03:06 62° WSW 18:08:07 10° NNW
Meteor 1-11 Rocket 4.0 17:57:54 10° N 18:03:15 42° ENE 18:05:46 27° SE
Cosmos 1470 Rocket 3.6 18:00:01 10° N 18:04:23 53° ENE 18:08:46 10° SSE
Cosmos 2150 Rocket 4.2 17:59:31 10° N 18:04:28 43° ENE 18:04:48 43° ENE
USA 267 3.8 18:01:04 23° NE 18:04:58 51° NNW 18:11:15 10° W
Cosmos 1328 Rocket 3.4 18:01:09 10° S 18:05:34 73° E 18:07:30 33° NNE
Cosmos 1655 Rocket 4.0 18:00:12 10° N 18:06:32 57° ENE 18:12:46 10° SSE
Cosmos 2360 Rocket 3.7 18:04:21 10° N 18:07:10 20° NNE 18:07:10 20° NNE
USA 305 3.9 18:05:06 10° NW 18:08:46 31° N 18:08:46 31° N
Landsat 5 3.2 18:08:41 63° ENE 18:09:06 68° ESE 18:13:03 10° S
Cosmos 2180 Rocket 4.4 18:07:59 10° S 18:14:19 83° E 18:20:38 10° N
SKYMED 2 3.7 18:12:01 23° N 18:14:41 74° WNW 18:19:00 10° SSW
Cosmos 841 Rocket 4.3 18:09:52 10° SW 18:14:52 48° WNW 18:18:54 15° N
Cosmos 1666 3.3 18:12:39 10° NNW 18:16:18 54° W 18:19:55 10° S
Feng Yun 1-1 Rocket 4.3 18:10:27 10° SSE 18:16:19 71° ENE 18:22:11 10° N
Meteor 2-8 Rocket 4.3 18:11:46 10° S 18:17:54 86° E 18:24:07 10° N
ATLAS CENTAUR R/B 3.2 18:11:32 10° WSW 18:19:21 43° NW 18:20:44 33° N
Cosmos 1125 Rocket 3.6 18:17:27 10° NNW 18:22:14 55° NE 18:22:14 55° NE
Cosmos 2322 Rocket 2.8 18:23:36 10° NNW 18:27:49 39° NNE 18:27:49 39° NNE
SL-08 RB Rocket 3.9 18:29:37 10° S 18:34:14 72° WSW 18:38:52 10° NNW
Cosmos 1980 Rocket 3.5 18:29:38 10° NW 18:34:51 39° WSW 18:40:00 10° S
ATLAS 2AS CENTAUR R/B 4.3 18:31:10 10° NW 18:36:35 21° N 18:37:27 20° NNE
ISS -1.8 18:35:51 10° WNW 18:37:58 29° W 18:37:58 29° W
USA 306 4.5 18:37:13 10° NW 18:39:35 27° NNW 18:39:35 27° NNW
CZ-4C R/B 3.4 18:38:43 10° NW 18:45:59 63° WSW 18:54:22 10° SSE
SL-16 R/B 2.2 18:41:09 10° NNW 18:46:11 67° N 18:46:11 67° N
Cosmos 2082 Rocket 3.5 18:44:31 10° WSW 18:49:45 37° NW 18:52:35 23° N
Cosmos 44 Rocket 3.8 18:48:57 10° NW 18:53:09 57° WNW 18:53:09 57° WNW
Cosmos 2333 Rocket 4.3 18:53:11 10° N 18:54:27 15° N 18:54:27 15° N
GEOS 3 Rocket 4.5 19:19:06 47° WNW 19:19:06 47° WNW 19:23:04 10° NW
Lacrosse 5 rocket 4.3 19:25:44 10° WNW 19:26:13 13° WNW 19:26:13 13° WNW
BREEZE-M DEB (TANK) 4.3 19:25:27 10° SW 19:44:57 78° WSW 19:44:57 78° WSW
Cosmos 2360 Rocket 4.5 19:47:43 10° NNW 19:48:57 17° NNW 19:48:57 17° NNW
